This demonstration page uses our WeatherBlox Daily Observations layout. Learn more.

Left ArrowRight Arrow

41.12389, -100.76542

Hourly Observations for July 13, 2018

Temp ( °F °C ) Dew Point ( °F °C ) Humidity (%) Winds ( mph kmh ) Pressure ( in mb ) Visibility ( mi km ) Precip ( " mm )
12:25 am 00:25 Mostly Cloudy 68 20 66 18.9 93 93 N 15 24 30.00 1016 10 16 0.00 0.03
12:53 am 00:53 Mostly Clear with Light Rain 68 20 66 18.9 93 93 NNW 7 11 29.98 1015 10 16 0.00 0.03
1:53 am 01:53 Mostly Clear 69 20.6 67 19.4 93 93 Calm 29.96 1014 10 16 0.00 0.03
2:53 am 02:53 Partly Cloudy 68 20 66 18.9 93 93 SE 5 7 29.96 1014 10 16 0.00 0.00
3:53 am 03:53 Mostly Clear 68 20 67 19.4 96 96 Calm 29.99 1016 10 16 0.00 0.00
4:53 am 04:53 Mostly Cloudy 68 20 66 18.9 93 93 E 6 9 30.00 1016 10 16 0.00 0.00
5:53 am 05:53 Partly Cloudy 67 19.4 66 18.9 97 97 NE 5 7 30.02 1017 10 16 0.00 0.00
6:15 am 06:15 Partly Cloudy 67 19.4 66 18.9 97 97 ENE 6 9 30.03 1017 10 16 0.00 0.00
6:24 am 06:24 Mostly Cloudy 67 19.4 67 19.4 100 100 Calm 30.03 1017 10 16 0.00 0.00
6:53 am 06:53 Cloudy 68 20 67 19.4 96 96 E 6 9 30.04 1017 10 16 0.00 0.00
7:30 am 07:30 Mostly Cloudy 68 20 67 19.4 96 96 ESE 6 9 30.03 1017 10 16 0.00 0.00
7:43 am 07:43 Partly Cloudy 68 20 67 19.4 96 96 ESE 5 7 30.03 1017 10 16 0.00 0.00
7:53 am 07:53 Sunny 68 20 68 20 100 100 ESE 6 9 30.07 1018 10 16 0.00 0.00
8:10 am 08:10 Mostly Sunny 69 20.6 67 19.4 93 93 E 6 9 30.06 1018 10 16 0.00 0.00
8:53 am 08:53 Partly Cloudy 72 22.2 67 19.4 84 84 E 12 19 30.07 1018 10 16 0.00 0.00
9:53 am 09:53 Sunny 76 24.4 68 20 77 77 ENE 7 11 30.07 1018 10 16 0.00 0.00
10:53 am 10:53 Sunny 78 25.6 69 20.6 74 74 NE 10 17 30.06 1018 10 16 0.00 0.00
11:53 am 11:53 Sunny 81 27.2 70 21.1 69 69 NE 10 17 30.06 1018 10 16 0.00 0.00
12:53 pm 12:53 Sunny 83 28.3 69 20.6 63 63 NE 8 13 30.07 1018 10 16 0.00 0.00
1:53 pm 13:53 Sunny 85 29.4 68 20 57 57 ENE 12 19 30.06 1018 10 16 0.00 0.00
2:53 pm 14:53 Sunny 85 29.4 66 18.9 53 53 NE 8 13 30.06 1018 10 16 0.00 0.00
3:53 pm 15:53 Partly Cloudy 87 30.6 68 20 53 53 NE 8 13 30.04 1017 10 16 0.00 0.00
4:53 pm 16:53 Partly Cloudy 86 30 69 20.6 57 57 NE 12 19 30.03 1017 10 16 0.00 0.00
5:53 pm 17:53 Partly Cloudy 86 30 68 20 55 55 NE 7 11 30.02 1017 10 16 0.00 0.00
6:53 pm 18:53 Mostly Cloudy 83 28.3 68 20 61 61 E 7 11 30.01 1016 10 16 0.00 0.00
7:53 pm 19:53 Sunny 83 28.3 68 20 61 61 E 8 13 30.02 1017 10 16 0.00 0.00
8:53 pm 20:53 Sunny 79 26.1 69 20.6 72 72 E 6 9 30.03 1017 10 16 0.00 0.00
9:53 pm 21:53 Clear 72 22.2 68 20 87 87 SE 6 9 30.06 1018 10 16 0.00 0.00
10:53 pm 22:53 Clear 70 21.1 68 20 93 93 ESE 6 9 30.07 1018 10 16 0.00 0.00
11:53 pm 23:53 Clear 68 20 67 19.4 96 96 ESE 3 6 30.08 1019 10 16 0.00 0.00

Powered by AerisWeather